Date String (YYYY-MM-DD hh:mm:ss) UTC,Instrument flags,Ambient pressure (hPa),Sample flow (lpm),Bypass flow (lpm),Sample temperature (°C),Ambient temperature (°C),ASC tube jacket temperature (°C),LED temperature (°C),Box temperature (°C),Sample RH (%),Span deviation,Mass concentration (μg/m³),Mass concentration (μg/m³),Mass concentration (μg/m³)
DateTimeUTC,F1_M11,P_M11,Q1_M11,Q2_M11,T1_M11,T2_M11,T3_M11,T4_M11,T5_M11,U1_M11,ZSPAN_M11,X0_M11,X2_M11,X1_M11
2023-01-14 21:00:00,,0815.7,5.00,0.00,26.6,25.2,00.0,35.3,28.3,10.2,0000.0,0000.55,0000.39,0000.30
2023-01-14 21:01:00,,0815.6,5.02,0.00,26.6,25.3,00.0,35.3,28.4,09.8,0000.0,0000.49,0000.35,0000.30
2023-01-14 21:02:00,,0815.8,4.98,0.00,26.6,25.2,00.0,35.3,28.4,09.5,0000.0,0000.46,0000.34,0000.30
2023-01-14 21:03:00,,0815.8,5.01,0.00,26.6,25.2,00.0,35.3,28.3,09.8,0000.0,0000.47,0000.34,0000.30
2023-01-14 21:04:00,,0815.9,4.99,0.00,26.6,25.2,00.0,35.3,28.3,10.0,0000.0,0000.45,0000.34,0000.30
2023-01-14 21:05:00,,0815.8,5.00,0.00,26.6,25.2,00.0,35.4,28.3,10.0,0000.0,0000.47,0000.36,0000.31
2023-01-14 21:06:00,,0815.8,4.99,0.00,26.6,25.2,00.0,35.4,28.3,09.9,0000.0,0000.49,0000.37,0000.31
2023-01-14 21:07:00,,0815.8,5.01,0.00,26.6,25.2,00.0,35.4,28.3,09.8,0000.0,0000.50,0000.38,0000.31
2023-01-14 21:08:00,,0815.8,4.99,0.00,26.6,25.2,00.0,35.4,28.4,09.7,0000.0,0000.48,0000.38,0000.31
2023-01-14 21:09:00,,0815.8,5.00,0.00,26.6,25.2,00.0,35.4,28.3,09.8,0000.0,0000.48,0000.38,0000.32
2023-01-14 21:10:00,,0815.8,5.00,0.00,26.6,25.2,00.0,35.4,28.3,09.6,0000.0,0000.46,0000.37,0000.32
2023-01-14 21:11:00,,0815.7,5.01,0.00,26.6,25.2,00.0,35.4,28.4,09.5,0000.0,0000.46,0000.37,0000.32
2023-01-14 21:12:00,,0815.7,4.99,0.00,26.6,25.2,00.0,35.4,28.4,09.6,0000.0,0000.46,0000.38,0000.32
2023-01-14 21:13:00,,0815.7,5.00,0.00,26.6,25.2,00.0,35.4,28.4,09.7,0000.0,0000.45,0000.37,0000.32
2023-01-14 21:14:00,,0815.6,5.00,0.00,26.6,25.2,00.0,35.4,28.3,09.9,0000.0,0000.45,0000.36,0000.31
2023-01-14 21:15:00,,0816.0,5.00,0.00,26.6,25.2,00.0,35.4,28.3,10.0,0000.0,0000.54,0000.37,0000.31
2023-01-14 21:16:00,,0816.0,5.02,0.00,26.6,25.2,00.0,35.4,28.4,10.2,0000.0,0000.54,0000.37,0000.32
2023-01-14 21:17:00,,0815.4,5.00,0.00,26.6,25.2,00.0,35.4,28.4,10.0,0000.0,0000.55,0000.37,0000.32
2023-01-14 21:18:00,,0815.5,5.00,0.00,26.6,25.2,00.0,35.4,28.4,09.6,0000.0,0000.56,0000.37,0000.32
2023-01-14 21:19:00,,0815.4,5.00,0.00,26.6,25.2,00.0,35.4,28.4,09.7,0000.0,0000.61,0000.39,0000.32
2023-01-14 21:20:00,,0816.1,4.99,0.00,26.6,25.2,00.0,35.4,28.4,09.7,0000.0,0000.62,0000.39,0000.31
2023-01-14 21:21:00,,0815.7,5.00,0.00,26.6,25.2,00.0,35.4,28.4,09.8,0000.0,0000.63,0000.39,0000.32
2023-01-14 21:22:00,,0815.5,5.00,0.00,26.6,25.2,00.0,35.4,28.4,09.7,0000.0,0000.63,0000.40,0000.32
2023-01-14 21:23:00,,0815.5,5.00,0.00,26.6,25.2,00.0,35.4,28.4,10.3,0000.0,0000.66,0000.41,0000.32
2023-01-14 21:24:00,,0815.5,4.99,0.00,26.6,25.2,00.0,35.4,28.4,10.4,0000.0,0000.71,0000.43,0000.32
2023-01-14 21:25:00,,0815.9,5.01,0.00,26.6,25.2,00.0,35.4,28.4,10.1,0000.0,0000.68,0000.43,0000.32
2023-01-14 21:26:00,,0815.6,5.02,0.00,26.6,25.2,00.0,35.4,28.4,09.9,0000.0,0000.60,0000.42,0000.32
2023-01-14 21:27:00,,0815.4,5.01,0.00,26.6,25.2,00.0,35.4,28.4,10.2,0000.0,0000.57,0000.40,0000.32
2023-01-14 21:28:00,,0815.4,5.01,0.00,26.6,25.2,00.0,35.4,28.4,09.6,0000.0,0000.54,0000.39,0000.32
2023-01-14 21:29:00,,0815.3,5.01,0.00,26.6,25.2,00.0,35.4,28.4,09.4,0000.0,0000.53,0000.39,0000.33
2023-01-14 21:30:00,,0815.3,4.99,0.00,26.6,25.2,00.0,35.4,28.4,09.2,0000.0,0000.50,0000.38,0000.34
2023-01-14 21:31:00,,0815.3,5.00,0.00,26.6,25.2,00.0,35.4,28.4,09.8,0000.0,0000.50,0000.38,0000.34
2023-01-14 21:32:00,,0815.3,5.00,0.00,26.6,25.2,00.0,35.4,28.4,09.7,0000.0,0000.51,0000.39,0000.35
2023-01-14 21:33:00,,0815.2,5.00,0.00,26.6,25.2,00.0,35.4,28.4,10.0,0000.0,0000.54,0000.40,0000.35
2023-01-14 21:34:00,,0815.3,4.99,0.00,26.6,25.2,00.0,35.4,28.4,09.9,0000.0,0000.54,0000.40,0000.35
2023-01-14 21:35:00,,0815.2,5.01,0.00,26.6,25.2,00.0,35.4,28.4,09.7,0000.0,0000.60,0000.42,0000.37
2023-01-14 21:36:00,,0815.2,5.00,0.00,26.6,25.2,00.0,35.4,28.4,10.2,0000.0,0000.68,0000.44,0000.37
2023-01-14 21:37:00,,0815.3,5.00,0.00,26.6,25.2,00.0,35.4,28.4,10.6,0000.0,0000.73,0000.46,0000.37
2023-01-14 21:38:00,,0815.6,5.01,0.00,26.6,25.2,00.0,35.4,28.4,10.3,0000.0,0000.77,0000.47,0000.37
2023-01-14 21:39:00,,0815.2,4.99,0.00,26.6,25.2,00.0,35.4,28.4,09.6,0000.0,0000.77,0000.47,0000.37
2023-01-14 21:40:00,,0815.3,5.00,0.00,26.6,25.2,00.0,35.4,28.4,10.3,0000.0,0000.75,0000.46,0000.37
2023-01-14 21:41:00,,0815.2,5.01,0.00,26.6,25.2,00.0,35.4,28.4,10.4,0000.0,0000.77,0000.47,0000.36
2023-01-14 21:42:00,,0815.1,4.99,0.00,26.6,25.2,00.0,35.4,28.4,10.4,0000.0,0000.77,0000.47,0000.36
2023-01-14 21:43:00,,0815.1,4.99,0.00,26.6,25.2,00.0,35.4,28.4,10.2,0000.0,0000.76,0000.46,0000.36
2023-01-14 21:44:00,,0815.3,5.01,0.00,26.6,25.2,00.0,35.4,28.4,10.2,0000.0,0000.73,0000.45,0000.35
2023-01-14 21:45:00,,0815.1,4.99,0.00,26.6,25.2,00.0,35.4,28.4,10.4,0000.0,0000.70,0000.44,0000.35
2023-01-14 21:46:00,,0815.2,5.00,0.00,26.6,25.2,00.0,35.4,28.4,10.2,0000.0,0000.59,0000.41,0000.34
2023-01-14 21:47:00,,0815.2,5.01,0.00,26.6,25.2,00.0,35.4,28.4,09.8,0000.0,0000.55,0000.40,0000.34
2023-01-14 21:48:00,,0815.2,5.00,0.00,26.6,25.2,00.0,35.4,28.4,09.9,0000.0,0000.50,0000.39,0000.33
2023-01-14 21:49:00,,0815.2,4.99,0.00,26.6,25.2,00.0,35.4,28.3,10.3,0000.0,0000.47,0000.37,0000.33
2023-01-14 21:50:00,,0815.3,5.00,0.00,26.6,25.2,00.0,35.4,28.3,09.7,0000.0,0000.48,0000.38,0000.33
2023-01-14 21:51:00,,0815.3,5.00,0.00,26.6,25.2,00.0,35.4,28.4,10.1,0000.0,0000.50,0000.38,0000.34
2023-01-14 21:52:00,,0815.3,5.01,0.00,26.6,25.3,00.0,35.4,28.4,10.1,0000.0,0000.51,0000.38,0000.34
2023-01-14 21:53:00,,0815.3,5.01,0.00,26.6,25.3,00.0,35.4,28.4,09.9,0000.0,0000.53,0000.39,0000.34
2023-01-14 21:54:00,,0815.3,5.01,0.00,26.7,25.3,00.0,35.4,28.4,09.8,0000.0,0000.54,0000.39,0000.34
2023-01-14 21:55:00,,0815.4,5.00,0.00,26.7,25.3,00.0,35.5,28.4,10.0,0000.0,0000.57,0000.41,0000.34
2023-01-14 21:56:00,,0815.4,5.01,0.00,26.6,25.3,00.0,35.5,28.3,09.9,0000.0,0000.60,0000.42,0000.34
2023-01-14 21:57:00,,0815.5,5.00,0.00,26.7,25.3,00.0,35.5,28.4,10.0,0000.0,0000.60,0000.42,0000.35
2023-01-14 21:58:00,,0815.4,5.00,0.00,26.7,25.3,00.0,35.5,28.4,10.1,0000.0,0000.61,0000.43,0000.35
2023-01-14 21:59:00,,0815.4,4.99,0.00,26.7,25.3,00.0,35.5,28.4,10.4,0000.0,0000.64,0000.44,0000.36
